EHI
0 0 0 0 0 0 0 0 0 0 0 0 0 0 0 0 0 0 0 0 0 0 0 0 0 0 0 0 0 0 0 0 0 0 0 0 0 0
0 0 0 0 0 0 0 0 0 0 0 0 0 0 0 0 0 0 0 0 0 0 0 0 0 0 0 0 0 0 0 0 0 0 0 0 0 0
0 0 0 0 0 0 0 0 0 0 0 0 0 0 0 0 0 0 0 0 0 0 0 0 0 0 0 0 0 0 0 0 0 0 0 0 0 0
0 0 0 0 0 0 0 0 0 0 0 0 0 0 0 0 0 0 0 0 0 0 0 0 0 0 0 0 0 0 0 0 0 0 0 0 0 0
0 0 0 0 0 0 0 0 0 0 0 0 0 0 0 0 0 0 0 0 0 0 0 0 0 0 0 0 0 0 0 0 0 0 0 0 0 0
0 0 0 0 0 0 0 0 0 0 0 0 0 0 0 0 0 0 0 0 0 0 0 0 0 0 0 0 0 0 0 0 0 0 0 0 0 0
0 0 0 0 0 0 0 0 0 0 0 0 0 0 0 0 0 0 0 0 0 0 0 0 0 0 0 0 0 0 0 0 0 0 0 0 0 0
0 0 0 0 0 0 0 0 0 0 0 0 0 0 0 0 0 0 0 0 0 0 0 0 0 0 0 0 0 0 0 0 0 0 0 0 0 0
0 0 0 0 0 0 0 0 0 0 0 0 0 0 0 0 0 0 0 0 0 0 0 0 0 0 0 0 0 0 0 0 0 0 0 0 0 0
0 0 0 0 0 0 0 0 0 0 0 0 0 0 0 0 0 0 0 0 0 0 0 0 0 0 0 0 0 0 0 0 0 0 0 0 0 0
0 0 0 0 0 0 0 0 0 0 0 0 0 0 0 0 0 0 0 0 0 0 0 0 0 0 0 0 0 0 0 0 0 0 0 0 0 0
0 0 0 0 0 0 0 0 0 0 0 0 0 0 0 0 0 0 0 0 0 0 0 0 0 0 0 0 0 0 0 0 0 0 0 0 0 0
0 0 0 0 0 0 0 0 0 0 0 0 0 0 0 0 0 0 0 0 0 0 0 0 0 0 0 0 0 0 0 0 0 0 0 0 0 0
0 0 0 0 0 0 0 0 0 0 0 0 0 0 0 0 0 0 0 0 0 0 0 0 0 0 0 0 0 0 0 0 0 0 0 0 0 0
0 0 0 0 0 0 0 0 0 0 0 0 0 0 0 0 0 0 0 0 0 0 0 0 0 0 0 0 0 0 0 0 0 0 0 0 0 0
0 0 0 0 0 0 0 0 0 0 0 0 0 0 0 0 0 0 0 0 0 0 0 0 0 0 0 0 0 0 0 0 0 0 0 0 0 0
0 0 0 0 0 0 0 0 0 0 0 0 0 0 0 0 0 0 0 0 0 0 0 0 0 0 0 0 0 0 0 0 0 0 0 0 0 0
0 0 0 0 0 0 0 0 0 0 0 0 0 0 0 0 0 0 0 0 0 0 0 0 0 0 0 0 0 0 0 0 0 0 0 0 0 0
0 0 0 0 0 0 0 0 0 0 0 0 0 0 0 0 0 0 0 0 0 0 0 0 0 0 0 0 0 0 0 0 0 0 0 0 0 0
0 0 0 0 0 0 0 0 0 0 0 0 0 0 0 0 0 0 0 0 0 0 0 0 0 0 0 0 0 0 0 0 0 0 0 0 0 0
0 0 0 0 0 0 0 0 0 0 0 0 0 0 0 0 0 0 0 0 0 0 0 0 0 0 0 0 0 0 0 0 0 0 0 0 0 0
0 0 0 0 0 0 0 0 0 0 0 0 0 0 0 0 0 0 0 0 0 0 0 0 0 0 0 0 0 0 0 0 0 0 0 0 0 0
0 0 0 0 0 0 0 0 0 0 0 0 0 0 0 0 0 0 0 0 0 0 0 0 0 0 0 0 0 0 0 0 0 0 0 0 0 0
Wind_Speed
3 3 2 2 2 2 2 3 3 3 3 3 2 3 3 2 3 3 3 5 5 5 4 4 4 3 4 4 5 5 5 5 5 6 7 7 8 9
2 3 2 2 2 2 2 2 2 3 3 2 2 2 2 2 3 3 3 5 6 6 5 5 5 5 5 5 5 5 5 5 5 6 7 8 8 9
2 3 3 3 2 2 2 2 2 2 3 2 1 1 2 2 2 2 2 3 3 6 6 6 6 6 6 6 6 5 5 6 6 7 8 8 9 9
3 3 3 2 3 3 3 3 3 3 3 3 2 2 2 3 2 2 2 2 2 5 7 7 7 7 7 6 6 6 6 6 6 7 8 8 9 10
3 3 3 3 4 3 3 3 2 2 2 3 3 2 1 1 1 2 2 2 2 4 6 7 7 7 7 7 7 6 6 6 6 7 8 8 9 10
2 3 3 4 4 4 4 4 3 2 2 2 2 2 2 1 1 2 2 2 2 2 3 4 6 7 8 8 7 6 6 6 7 7 7 8 8 9
2 3 3 4 4 4 3 3 3 3 3 3 3 2 2 2 2 2 2 2 3 2 2 2 3 3 4 6 7 7 7 7 7 8 8 8 9 9
3 3 3 4 4 5 5 5 5 5 4 4 3 4 4 3 3 2 2 1 3 2 1 3 2 3 3 3 6 7 7 7 7 8 8 9 9 9
3 3 3 3 3 3 4 4 5 6 6 5 5 5 4 4 4 4 4 3 4 3 1 3 2 3 3 4 7 7 7 7 7 8 9 9 9 10
3 3 3 3 3 3 3 3 3 3 5 4 5 4 4 4 4 5 4 3 2 2 2 3 2 3 3 3 6 7 7 7 8 8 9 9 9 10
3 3 3 3 4 4 3 3 3 3 3 5 5 4 4 4 4 2 2 2 3 3 2 2 2 2 3 3 4 6 7 7 8 8 8 8 9 9
2 2 3 4 5 4 4 4 4 3 2 2 2 2 3 4 4 4 4 4 2 3 2 2 2 1 3 2 2 2 4 6 8 8 8 8 9 5
2 2 2 4 5 4 4 4 4 3 2 2 2 2 2 2 2 2 2 3 3 3 2 2 2 1 2 3 2 2 2 2 3 4 6 8 9 6
2 2 2 3 4 4 4 4 4 3 2 2 2 2 2 2 2 2 2 2 2 3 2 2 2 3 2 3 3 2 2 2 2 3 3 6 7 9
2 3 4 4 4 3 3 3 3 2 2 2 3 3 2 2 1 1 1 1 1 1 2 2 3 3 3 4 3 3 2 2 2 2 2 3 3 3
2 2 3 3 3 2 2 2 1 2 2 2 2 2 1 1 1 1 2 1 1 2 2 2 3 3 3 4 3 4 3 2 2 3 3 3 3 3
1 1 1 1 1 1 1 1 1 1 1 1 1 1 1 1 2 1 1 1 2 2 2 1 1 2 3 3 3 4 3 3 3 2 3 4 4 4
1 1 1 1 1 1 1 1 1 1 1 1 1 2 2 2 2 1 1 2 2 2 2 2 1 1 1 2 4 4 3 2 2 2 2 3 5 4
0 1 1 1 1 1 1 1 1 1 1 1 2 2 2 2 2 2 2 2 3 2 2 2 2 1 2 3 3 3 2 2 2 2 3 3 5 5
0 1 1 1 1 1 1 1 1 1 1 1 2 2 2 2 3 3 3 3 3 2 2 2 2 3 4 4 3 3 4 3 3 3 3 3 4 6
1 1 1 1 1 1 1 1 1 1 2 2 2 2 2 3 3 3 3 4 3 3 3 3 4 3 1 1 1 2 3 4 4 3 3 3 3 3
1 1 1 1 1 1 1 1 1 2 2 2 2 2 2 3 3 3 3 3 3 3 3 2 2 1 1 2 3 3 3 3 4 6 6 5 3 3
1 2 2 1 1 1 1 1 2 2 2 2 2 2 2 3 3 2 3 3 3 3 2 2 1 1 2 2 3 3 3 3 2 3 3 6 7 9
Wind_Direction
193 193 196 198 189 186 179 170 172 208 235 220 211 210 195 185 196 198 205 217 225 233 244 257 261 272 273 279 284 288 290 290 290 293 299 304 307 310
195 193 205 207 201 192 191 195 184 186 221 224 208 206 189 192 196 194 209 222 229 234 240 248 252 259 264 267 266 272 279 281 284 289 293 299 302 303
209 205 212 208 205 202 198 197 199 181 214 257 228 191 181 192 203 211 214 214 223 235 239 245 250 250 257 261 262 268 273 277 282 286 289 292 295 298
215 215 220 213 216 208 200 202 205 194 192 225 237 211 210 203 196 216 237 237 225 234 238 245 249 249 252 255 257 263 269 274 280 283 286 289 293 295
211 213 221 214 223 215 207 204 206 208 199 200 222 219 222 208 206 246 244 248 248 240 239 245 248 249 251 252 253 256 262 268 274 279 284 288 291 292
217 213 217 222 226 215 210 207 201 199 198 198 209 215 224 212 189 227 263 253 258 252 243 249 250 250 251 253 252 252 256 264 271 276 280 285 290 293
235 225 221 230 236 229 218 204 199 203 205 207 213 215 216 206 215 216 237 261 270 237 240 256 248 245 248 252 250 249 254 261 267 272 277 282 287 290
239 238 230 232 239 239 233 225 212 208 212 214 223 224 223 214 208 213 216 238 267 246 234 266 239 244 245 238 248 252 257 263 268 273 278 281 285 288
241 240 240 235 238 241 235 232 232 229 222 221 225 230 227 217 203 212 224 229 242 234 213 260 250 255 254 254 257 255 258 266 273 276 281 284 285 288
244 239 235 232 231 226 226 225 228 231 231 229 229 230 228 218 210 210 210 230 267 260 200 243 252 259 269 261 255 255 263 273 276 279 284 287 288 289
244 244 237 231 233 227 221 227 237 250 248 236 233 230 227 230 222 198 201 208 254 258 219 219 249 276 273 258 254 258 267 272 276 280 284 286 290 292
241 241 245 248 240 233 219 216 226 235 239 255 257 253 239 232 234 221 209 212 228 246 220 205 230 272 288 269 253 256 264 272 279 283 285 289 292 288
243 245 246 250 247 244 247 234 233 233 225 225 235 238 241 233 235 231 217 213 221 237 210 184 214 218 235 280 284 255 243 262 276 276 280 288 291 290
249 255 250 252 257 257 261 245 239 245 224 217 226 232 232 238 236 229 226 230 233 238 221 196 214 217 230 261 271 282 278 265 260 268 272 290 292 291
258 266 272 267 268 262 258 255 243 228 211 219 227 237 235 224 215 215 234 241 262 268 238 222 215 224 229 239 255 269 287 281 259 271 278 281 278 285
252 263 278 272 272 271 270 250 231 221 219 225 227 233 229 216 221 223 223 222 248 277 284 247 223 218 238 248 248 261 259 260 273 280 284 283 278 267
261 274 279 265 257 249 257 246 223 209 220 221 222 227 227 232 233 224 217 223 229 244 268 295 284 246 236 237 244 245 251 263 266 278 294 292 281 274
283 231 241 239 229 228 241 249 245 231 231 232 229 226 223 223 231 227 218 219 233 241 244 250 266 312 308 276 231 230 240 249 267 274 274 279 282 282
258 213 232 249 239 225 232 249 269 266 252 237 236 228 223 221 222 223 224 232 237 238 241 236 224 218 249 266 272 227 226 260 269 270 262 257 269 281
285 261 254 259 258 242 241 250 263 265 250 247 248 236 223 223 223 225 224 224 232 242 248 242 230 223 226 230 244 263 246 242 247 260 268 277 273 280
281 279 274 266 267 269 270 263 248 246 252 251 248 246 232 225 229 228 228 234 235 234 240 244 241 250 224 180 255 274 273 259 260 255 258 279 289 285
296 293 287 283 281 274 265 262 262 255 247 249 250 248 240 231 233 231 227 227 234 240 248 252 234 217 199 222 249 262 282 297 292 286 273 253 249 256
287 290 293 290 284 285 278 266 260 260 254 250 248 245 241 241 237 232 231 233 237 241 244 245 230 218 221 228 241 258 268 282 293 298 290 290 286 284